Погода в Какамеге

Кения     0°16′53″N   34°44′51″E
темп.,
°C
ветер,
м/с
пор.,
м/с
влажн.,
%
обл.,
%
осадки,
мм/ч
давл.,
гПа
погр.,
м
7 марта, вс
вс700:00+19в227076 0.0 101325
03:00+17в226688 0.0 101225
06:00+16в226637 0.0 101324
09:00+23всв234652 0.0 1013572
12:00+32с25230 0.0 10102889
15:00+32с132020 0.0 10062832
18:00+25зюз475295 0.0 1007398
21:00+20ю237888 0.9 101072
8 марта, пн
пн800:00+18вюв128268 0.5 101324
03:00+16в337784 0.5 101132
06:00+15вюв227492 0.0 101223
09:00+22всв225396 0.0 1013271
12:00+31ссз362159 0.0 10103067
15:00+33всв241739 0.0 10063425
18:00+25зюз565098 0.0 1006726
21:00+19ююз258186 0.2 1011131
9 марта, вт
вт900:00+17вюв339022 1.1 101356
03:00+16вюв237912 1.2 101228
06:00+15в23700 0.0 101326
09:00+23в22470 0.0 1014349
12:00+30ссз26221 0.0 10123068
15:00+32св141938 0.0 10073205
18:00+25зюз4549100 0.0 1008760
21:00+18ююв238097 0.0 101262
10 марта, ср
ср1000:00+17вюв227497 0.2 101426
03:00+16вюв335698 0.2 101337
06:00+16вюв2362100 0.0 101338
09:00+23в244194 0.0 1014591
12:00+31св67190 0.0 10113224
15:00+32св561730 0.0 10083667
18:00+25зюз4645100 0.0 1009399
21:00+18ююз117990 0.0 101223
11 марта, чт
чт1100:00+18в2363100 0.1 101427
03:00+17в3458100 0.1 101252
06:00+16вюв2364100 0.0 101336
09:00+23вюв2539100 0.0 1014728
12:00+31св671991 0.0 10112847
15:00+33св671478 0.0 10073741
18:00+30всв351894 0.0 10071094
21:00+18ююз126297 0.0 101124